FW6569 Weather Reports


Display with metric or nautical units.
time (UTC)temp
F
wind
direction
speed
MPH
gust
MPH
rain 1hr
in
rain 24hr
in
rain mn
in
humidity
%
barometer
mb
20260508175521 69 201 12.0 17.0 0.00 0.00 0.00 44 1012.6
20260508174522 69 196 12.0 18.0 0.00 0.00 0.00 45 1012.9
20260508173521 67 208 9.0 13.0 0.00 0.00 0.00 48 1013.2
20260508172522 67 191 11.0 15.0 0.00 0.00 0.00 47 1013.4
20260508171542 68 208 12.0 18.0 0.00 0.00 0.00 46 1013.5
20260508170522 66 207 10.0 15.0 0.00 0.00 0.00 49 1013.7
20260508165522 66 234 7.0 12.0 0.00 0.00 0.00 49 1014.0
20260508164521 68 220 13.0 23.0 0.00 0.00 0.00 46 1014.0
20260508163522 67 225 9.0 15.0 0.00 0.00 0.00 48 1014.1
20260508162522 67 220 10.0 15.0 0.00 0.00 0.00 49 1014.4
20260508161522 64 223 9.0 15.0 0.00 0.00 0.00 51 1014.5
20260508160522 63 220 9.0 13.0 0.00 0.00 0.00 52 1014.7
20260508155522 63 218 10.0 16.0 0.00 0.00 0.00 51 1014.8
20260508154522 65 217 13.0 18.0 0.00 0.00 0.00 50 1014.9
20260508153522 64 233 8.0 11.0 0.00 0.00 0.00 53 1014.9
20260508152522 63 232 10.0 14.0 0.00 0.00 0.00 53 1014.9
20260508151542 63 215 12.0 17.0 0.00 0.00 0.00 53 1015.0
20260508150522 62 213 11.0 15.0 0.00 0.00 0.00 52 1014.9
20260508145522 62 202 11.0 14.0 0.00 0.00 0.00 52 1014.9
20260508144522 62 226 7.0 16.0 0.00 0.00 0.00 54 1015.2
20260508143522 61 236 10.0 13.0 0.00 0.00 0.00 53 1015.4
20260508142542 60 209 12.0 18.0 0.00 0.00 0.00 53 1015.5
20260508141542 60 206 10.0 13.0 0.00 0.00 0.00 54 1015.5
20260508140522 59 198 9.0 14.0 0.00 0.00 0.00 54 1015.6
20260508135522 58 222 9.0 13.0 0.00 0.00 0.00 56 1015.6
20260508134522 57 210 9.0 12.0 0.00 0.00 0.00 57 1015.6
20260508133542 57 220 10.0 13.0 0.00 0.00 0.00 57 1015.6
20260508132522 56 217 10.0 15.0 0.00 0.00 0.00 58 1015.6
20260508131522 56 219 9.0 13.0 0.00 0.00 0.00 58 1015.6
20260508130522 55 214 7.0 13.0 0.00 0.00 0.00 59 1015.6
20260508125522 54 217 7.0 10.0 0.00 0.00 0.00 60 1015.6
20260508124523 53 210 6.0 9.0 0.00 0.00 0.00 62 1015.7
20260508123522 52 218 6.0 9.0 0.00 0.00 0.00 63 1015.6
20260508122522 51 201 7.0 9.0 0.00 0.00 0.00 64 1015.6
20260508121603 51 202 6.0 8.0 0.00 0.00 0.00 65 1015.5
20260508120522 50 205 7.0 9.0 0.00 0.00 0.00 65 1015.4
20260508115543 49 204 6.0 8.0 0.00 0.00 0.00 67 1015.3
20260508114522 48 187 5.0 8.0 0.00 0.00 0.00 70 1015.3
20260508113522 47 191 4.0 6.0 0.00 0.00 0.00 72 1015.2
20260508112523 46 190 4.0 4.0 0.00 0.00 0.00 74 1015.1
20260508111522 45 189 4.0 6.0 0.00 0.00 0.00 74 1015.1
20260508110523 45 194 4.0 5.0 0.00 0.00 0.00 75 1015.0
20260508105523 45 199 4.0 5.0 0.00 0.00 0.00 75 1014.9
20260508104522 44 199 3.0 5.0 0.00 0.00 0.00 76 1014.9
20260508103523 44 195 2.0 3.0 0.00 0.00 0.00 77 1014.8
20260508102522 44 190 3.0 3.0 0.00 0.00 0.00 77 1014.9
20260508101523 44 194 2.0 4.0 0.00 0.00 0.00 77 1014.9
20260508100523 44 149 2.0 3.0 0.00 0.00 0.00 76 1014.8
20260508095522 45 181 2.0 5.0 0.00 0.00 0.00 76 1014.8
20260508094522 46 174 1.0 2.0 0.00 0.00 0.00 75 1014.8
20260508093523 47 193 3.0 4.0 0.00 0.00 0.00 72 1014.9
20260508092523 47 212 4.0 5.0 0.00 0.00 0.00 71 1015.0
20260508091523 47 202 3.0 4.0 0.00 0.00 0.00 70 1014.9
20260508090543 48 213 2.0 3.0 0.00 0.00 0.00 69 1015.0
20260508085523 48 190 3.0 4.0 0.00 0.00 0.00 68 1014.9
20260508084523 48 197 4.0 5.0 0.00 0.00 0.00 67 1014.9
20260508083543 48 207 4.0 6.0 0.00 0.00 0.00 67 1014.9
20260508082523 49 209 4.0 6.0 0.00 0.00 0.00 68 1015.0
20260508081523 48 218 4.0 7.0 0.00 0.00 0.00 68 1014.9
20260508080523 48 212 4.0 6.0 0.00 0.00 0.00 69 1014.9
20260508075543 47 206 4.0 6.0 0.00 0.00 0.00 70 1014.9
20260508074522 47 210 3.0 5.0 0.00 0.00 0.00 72 1014.9
20260508073523 46 201 3.0 5.0 0.00 0.00 0.00 73 1014.9
20260508072543 46 225 2.0 3.0 0.00 0.00 0.00 74 1015.0
20260508071522 46 209 2.0 5.0 0.00 0.00 0.00 74 1015.0
20260508070523 47 0.0 0.0 0.00 0.00 0.00 72 1015.1
20260508065523 47 209 3.0 4.0 0.00 0.00 0.00 71 1015.1
20260508064523 47 206 3.0 5.0 0.00 0.00 0.00 71 1015.1
20260508063523 47 198 3.0 6.0 0.00 0.00 0.00 73 1015.1
20260508062523 46 197 4.0 6.0 0.00 0.00 0.00 75 1015.3
20260508061523 46 174 3.0 4.0 0.00 0.00 0.00 76 1015.4
20260508060523 45 193 4.0 6.0 0.00 0.00 0.00 77 1015.5
20260508055543 45 232 1.0 3.0 0.00 0.00 0.00 79 1015.8
20260508054523 44 204 3.0 3.0 0.00 0.00 0.00 82 1015.7
20260508053523 45 192 3.0 3.0 0.00 0.00 0.00 82 1015.7
20260508052523 45 189 2.0 3.0 0.00 0.00 0.00 81 1015.7
20260508051523 45 177 2.0 3.0 0.00 0.00 0.00 78 1015.7
20260508050603 45 196 1.0 3.0 0.00 0.00 0.00 78 1015.6
20260508045523 46 0.0 0.0 0.00 0.00 0.00 76 1015.6
20260508044523 47 0.0 0.0 0.00 0.00 0.00 75 1015.6
20260508043523 47 199 3.0 3.0 0.00 0.00 0.00 75 1015.6
20260508042523 47 190 3.0 4.0 0.00 0.00 0.00 75 1015.6
20260508041603 46 205 2.0 3.0 0.00 0.00 0.00 77 1015.7
20260508040523 46 205 2.0 3.0 0.00 0.00 0.00 80 1015.6
20260508035523 46 220 1.0 3.0 0.00 0.00 0.00 79 1015.6
20260508034523 46 195 2.0 3.0 0.00 0.00 0.00 78 1015.7
20260508033543 46 216 2.0 3.0 0.00 0.00 0.00 80 1015.7
20260508032604 46 195 3.0 3.0 0.00 0.00 0.00 78 1015.6
20260508031523 46 199 2.0 3.0 0.00 0.00 0.00 79 1015.8
20260508030523 46 209 3.0 4.0 0.00 0.00 0.00 80 1015.7
20260508025523 45 221 2.0 3.0 0.00 0.00 0.00 84 1015.6
20260508024523 45 230 1.0 2.0 0.00 0.00 0.00 84 1015.6
20260508023524 46 0.0 0.0 0.00 0.00 0.00 82 1015.5
20260508022523 46 233 1.0 2.0 0.00 0.00 0.00 83 1015.3
20260508021603 46 0.0 0.0 0.00 0.00 0.00 80 1015.3
20260508020524 47 0.0 0.0 0.00 0.00 0.00 79 1015.3
20260508015523 47 0.0 0.0 0.00 0.00 0.00 77 1015.2
20260508014524 48 0.0 0.0 0.00 0.00 0.00 76 1015.2
20260508013523 49 0.0 0.0 0.00 0.00 0.00 76 1015.1
20260508012524 49 0.0 0.0 0.00 0.00 0.00 74 1015.1
20260508011604 49 0.0 0.0 0.00 0.00 0.00 73 1015.0
20260508010524 50 0.0 0.0 0.00 0.00 0.00 69 1015.0
20260508005523 52 0.0 0.0 0.00 0.00 0.00 66 1014.9
20260508004544 53 0.0 0.0 0.00 0.00 0.00 67 1014.9
20260508003523 54 0.0 0.0 0.00 0.00 0.00 60 1014.9
20260508002524 54 0.0 0.0 0.00 0.00 0.00 56 1014.9
20260508001543 55 205 0.0 1.0 0.00 0.00 0.00 58 1014.8
20260508000604 57 0.0 0.0 0.00 0.00 0.00 53 1014.7
20260507235524 58 209 1.0 3.0 0.00 0.00 0.00 46 1014.7
20260507234523 58 188 3.0 4.0 0.00 0.00 0.00 43 1014.7
20260507233524 60 180 4.0 7.0 0.00 0.00 0.00 41 1014.7
20260507232524 61 214 3.0 5.0 0.00 0.00 0.00 39 1014.7
20260507231524 62 205 3.0 4.0 0.00 0.00 0.00 40 1014.8
20260507230524 62 277 1.0 3.0 0.00 0.00 0.00 37 1014.8
20260507225523 61 295 1.0 3.0 0.00 0.00 0.00 37 1014.8
20260507224524 62 233 5.0 10.0 0.00 0.00 0.00 37 1014.9
20260507223524 64 225 5.0 7.0 0.00 0.00 0.00 37 1014.9
20260507222523 65 332 3.0 6.0 0.00 0.00 0.00 34 1014.9
20260507221524 65 229 2.0 4.0 0.00 0.00 0.00 32 1014.9
20260507220524 64 319 2.0 4.0 0.00 0.00 0.00 34 1014.8
20260507215524 64 286 3.0 9.0 0.00 0.00 0.00 35 1014.8
20260507214524 63 228 3.0 6.0 0.00 0.00 0.00 36 1014.7
20260507213524 64 263 4.0 6.0 0.00 0.00 0.00 34 1014.9
20260507212524 64 227 4.0 7.0 0.00 0.00 0.00 36 1015.0
20260507211524 63 234 4.0 8.0 0.00 0.00 0.00 36 1015.2
20260507210524 63 275 4.0 7.0 0.00 0.00 0.00 37 1015.2
20260507205524 61 207 5.0 8.0 0.00 0.00 0.00 40 1015.2
20260507204604 62 258 6.0 9.0 0.00 0.00 0.00 38 1015.2
20260507203524 62 241 4.0 8.0 0.00 0.00 0.00 37 1015.2
20260507202524 63 5 6.0 8.0 0.00 0.00 0.00 39 1015.3
20260507201524 63 8 5.0 10.0 0.00 0.00 0.00 37 1015.4
20260507200524 62 119 3.0 5.0 0.00 0.00 0.00 37 1015.4
20260507195524 60 7 6.0 11.0 0.00 0.00 0.00 39 1015.5
20260507194524 62 281 4.0 9.0 0.00 0.00 0.00 39 1015.6
20260507193524 62 11 3.0 8.0 0.00 0.00 0.00 39 1015.6
20260507192645 63 214 4.0 8.0 0.00 0.00 0.00 39 1015.7
20260507191524 62 13 5.0 10.0 0.00 0.00 0.00 40 1015.7
20260507190524 60 7 6.0 13.0 0.00 0.00 0.00 40 1015.7
20260507185524 61 346 5.0 8.0 0.00 0.00 0.00 38 1015.8
20260507184544 61 263 5.0 9.0 0.00 0.00 0.00 41 1015.8
20260507183524 62 9 6.0 9.0 0.00 0.00 0.00 39 1015.8
20260507182524 63 84 3.0 6.0 0.00 0.00 0.00 39 1015.9
20260507181524 61 332 4.0 8.0 0.00 0.00 0.00 41 1015.8
20260507180544 60 358 5.0 11.0 0.00 0.00 0.00 40 1016.2